Regional Weather Roundup
Issued by NWS

Home | Current Version | Previous Version | Text Only | Print | Product List | Glossary On
Versions: 1 2 3 4 5 6 7 8 9 10 11 12 13 14 15 16 17 18 19 20 21 22 23 24 25 26 27 28 29 30 31 32 33 34 35 36 37 38 39 40 41 42 43 44 45 46 47 48 49 50
126
ASUS45 KBOI 141910
RWRID

IDAHO REGIONAL WEATHER ROUNDUP
NATIONAL WEATHER SERVICE BOISE ID
1200 PM MST SUN FEB 14 2016

NOTE: "FAIR" INDICATES FEW OR NO CLOUDS BELOW 12000 FEET
WITH NO SIGNIFICANT WEATHER AND/OR OBSTRUCTIONS TO VISIBILITY

IDZ012-014-142000-
SOUTHWEST IDAHO


CITY           SKY/WX    TMP DP  RH WIND       PRES   REMARKS
BOISE          CLOUDY    45  40  82 N3        30.27R
CALDWELL       CLOUDY    46  41  82 E3        30.27S
MOUNTAIN HOME  CLOUDY    43  39  87 NW1       30.26R
$$

IDZ016-017-142000-
SOUTHCENTRAL IDAHO


CITY           SKY/WX    TMP DP  RH WIND       PRES   REMARKS
BURLEY         LGT RAIN  40  38  93 W13G20    30.21R WCI  32
JEROME         CLOUDY    39  37  92 SW14      30.24R WCI  31
TWIN FALLS     CLOUDY    41  39  93 W13       30.24R
$$

IDZ019>023-142000-
SOUTHEAST IDAHO


CITY           SKY/WX    TMP DP  RH WIND       PRES   REMARKS
IDAHO FALLS    FOG       33  32  96 SW21      30.15F VSB 1/2 WCI  21
POCATELLO      CLOUDY    37  34  89 SW22G30   30.20R WCI  26
REXBURG        CLOUDY    30  30 100 W8        30.13S FOG     WCI  22
$$

IDZ006-010-011-018-031-032-142000-
CENTRAL IDAHO MOUNTAINS


CITY           SKY/WX    TMP DP  RH WIND       PRES   REMARKS
MCCALL         LGT SNOW  33  32  96 CALM      30.19S FOG
HAILEY         PTSUNNY   36  27  69 CALM      30.18F
STANLEY          N/A     34  30  85 E6        30.18S WCI  29
SALMON         CLOUDY    34  27  75 CALM      30.12R
CHALLIS        CLOUDY    37  28  70 W6        30.13R WCI  32
$$

IDZ002-004-006-007-026-142000-
NORTHERN IDAHO


CITY           SKY/WX    TMP DP  RH WIND       PRES   REMARKS
LEWISTON       LGT RAIN  48  42  80 SW12      30.14F
LOWELL           N/A     43  40  89 CALM      30.19R
COEUR D`ALENE  CLOUDY    43  37  81 W5        30.09S
MULLAN PASS    FOG       31  29  92 VRB6      30.03S VSB 3/4 WCI  25
$$




USA.gov is the U.S. government's official web portal to all federal, state and local government web resources and services.